User: anonymous   Login
Location: Dover
(39.1580°N, 75.5250°W)
Time: 21:35:39
(UTC-04:00)
Language:

SeaSat 1 - Orbit

View from above orbital plane
View from above orbital plane
View from above satellite
View from above satellite

Ground track
Ground track

The orbit data is extracted from the following two-line orbital elements,

1 10967U 78064A   17086.91272741 -.00000007 +00000-0 +38264-4 0  9998
2 10967 108.0102 129.6086 0002217 286.1294 073.9606 14.43631714034645
Epoch (UTC): 27 March 2017 21:54:19
Eccentricity: 0.0002217
inclination: 108.0102°
perigee height: 745 km
apogee height: 748 km
right ascension of ascending node: 129.6086°
argument of perigee: 286.1294°
revolutions per day: 14.43631714
mean anomaly at epoch: 73.9606°
orbit number at epoch: 3464

The dashed part of the orbit path shows where the satellite is in the earth's shadow,  

DLR